CFG3VT EDDM-EDDF

Flight info

Callsign CFG3VT
Flight time 0h 34m
Altitude 24000
Route GIVMI1N/26R GIVMI Y101 ERNAS T161 DEBHI DEBHI1B
Aircraft A321/M-SDE3FGIJ1LORVWXYZ/LB1

Departure

Time 2026-05-07 17:04
Airport Munich Airport (EDDM)

Arrival

Time 2026-05-07 17:39
Airport Frankfurt Main Airport (EDDF)
Time Latitude Longitude Altitude Speed Heading
2026-05-07 16:13 48.34948 11.78371 1482 ft 0 kts 83°
2026-05-07 16:45 48.34946 11.78338 1483 ft 4 kts 85°
2026-05-07 16:45 48.34944 11.78297 1477 ft 4 kts 91°
2026-05-07 16:46 48.34946 11.78264 1478 ft 3 kts 97°
2026-05-07 16:46 48.34945 11.78237 1477 ft 4 kts 21°
2026-05-07 16:46 48.34921 11.78235 1477 ft 4 kts 353°
2026-05-07 16:46 48.34913 11.78237 1481 ft 0 kts 353°
2026-05-07 16:49 48.34919 11.78236 1478 ft 5 kts 353°
2026-05-07 16:49 48.34964 11.78228 1479 ft 7 kts 353°
2026-05-07 16:49 48.35012 11.78219 1475 ft 7 kts 353°
2026-05-07 16:49 48.35063 11.78210 1478 ft 8 kts 353°
2026-05-07 16:50 48.35121 11.78200 1479 ft 8 kts 353°
2026-05-07 16:50 48.35205 11.78186 1485 ft 14 kts 353°
2026-05-07 16:50 48.35292 11.78170 1479 ft 8 kts 353°
2026-05-07 16:50 48.35341 11.78136 1483 ft 8 kts 311°
2026-05-07 16:51 48.35349 11.78059 1478 ft 7 kts 265°
2026-05-07 16:51 48.35343 11.77983 1475 ft 7 kts 263°
2026-05-07 16:51 48.35337 11.77910 1485 ft 7 kts 263°
2026-05-07 16:51 48.35340 11.77842 1483 ft 6 kts 298°
2026-05-07 16:52 48.35377 11.77815 1479 ft 6 kts 348°
2026-05-07 16:52 48.35419 11.77806 1485 ft 11 kts 353°
2026-05-07 16:52 48.35493 11.77793 1473 ft 11 kts 353°
2026-05-07 16:52 48.35570 11.77780 1483 ft 12 kts 353°
2026-05-07 16:53 48.35654 11.77765 1479 ft 12 kts 353°
2026-05-07 16:53 48.35738 11.77744 1480 ft 12 kts 343°
2026-05-07 16:53 48.35820 11.77703 1483 ft 12 kts 347°
2026-05-07 16:53 48.35907 11.77685 1481 ft 13 kts 353°
2026-05-07 16:54 48.35994 11.77670 1473 ft 11 kts 354°
2026-05-07 16:54 48.36063 11.77680 1485 ft 10 kts 34°
2026-05-07 16:54 48.36083 11.77772 1481 ft 9 kts 84°
2026-05-07 16:54 48.36093 11.77899 1477 ft 16 kts 83°
2026-05-07 16:55 48.36106 11.78065 1475 ft 16 kts 83°
2026-05-07 16:55 48.36119 11.78229 1485 ft 16 kts 83°
2026-05-07 16:55 48.36132 11.78406 1485 ft 19 kts 83°
2026-05-07 16:55 48.36147 11.78607 1485 ft 19 kts 83°
2026-05-07 16:56 48.36163 11.78810 1475 ft 19 kts 83°
2026-05-07 16:56 48.36178 11.79009 1485 ft 19 kts 83°
2026-05-07 16:56 48.36209 11.79403 1475 ft 19 kts 83°
2026-05-07 16:57 48.36224 11.79599 1473 ft 19 kts 83°
2026-05-07 16:57 48.36239 11.79795 1473 ft 19 kts 83°
2026-05-07 16:57 48.36255 11.79991 1485 ft 19 kts 83°
2026-05-07 16:57 48.36269 11.80186 1485 ft 19 kts 83°
2026-05-07 16:58 48.36284 11.80381 1485 ft 19 kts 83°
2026-05-07 16:58 48.36299 11.80576 1486 ft 19 kts 83°
2026-05-07 16:58 48.36314 11.80770 1478 ft 19 kts 84°
2026-05-07 16:58 48.36329 11.80965 1486 ft 19 kts 83°
2026-05-07 16:59 48.36345 11.81159 1486 ft 19 kts 83°
2026-05-07 16:59 48.36359 11.81353 1486 ft 19 kts 83°
2026-05-07 16:59 48.36372 11.81521 1481 ft 13 kts 83°
2026-05-07 16:59 48.36382 11.81650 1479 ft 12 kts 83°
2026-05-07 17:00 48.36392 11.81776 1469 ft 12 kts 83°
2026-05-07 17:00 48.36398 11.81887 1486 ft 9 kts 92°
2026-05-07 17:00 48.36400 11.81959 1486 ft 7 kts 72°
2026-05-07 17:00 48.36432 11.82001 1483 ft 6 kts 17°
2026-05-07 17:01 48.36474 11.81998 1478 ft 6 kts 354°
2026-05-07 17:01 48.36516 11.81991 1473 ft 6 kts 353°
2026-05-07 17:01 48.36554 11.81984 1486 ft 2 kts 353°
2026-05-07 17:01 48.36555 11.81984 1486 ft 0 kts 353°
2026-05-07 17:02 48.36556 11.81984 1486 ft 2 kts 353°
2026-05-07 17:02 48.36619 11.81973 1481 ft 10 kts 353°
2026-05-07 17:02 48.36664 11.81960 1475 ft 5 kts 329°
2026-05-07 17:02 48.36673 11.81915 1477 ft 4 kts 270°
2026-05-07 17:03 48.36671 11.81897 1482 ft 0 kts 263°
2026-05-07 17:03 48.36670 11.81878 1484 ft 9 kts 263°
2026-05-07 17:03 48.36641 11.81489 1476 ft 76 kts 264°
2026-05-07 17:04 48.36553 11.80350 1486 ft 139 kts 263°
2026-05-07 17:04 48.36420 11.78702 1712 ft 167 kts 265°
2026-05-07 17:04 48.36293 11.76995 2528 ft 162 kts 265°
2026-05-07 17:04 48.36162 11.75291 3046 ft 172 kts 266°
2026-05-07 17:05 48.36024 11.73372 3336 ft 196 kts 266°
2026-05-07 17:05 48.35865 11.71219 3630 ft 219 kts 265°
2026-05-07 17:05 48.35746 11.68874 4343 ft 227 kts 276°
2026-05-07 17:05 48.36224 11.66587 5151 ft 240 kts 298°
2026-05-07 17:06 48.37108 11.64336 5548 ft 257 kts 301°
2026-05-07 17:06 48.38064 11.62028 5942 ft 261 kts 301°
2026-05-07 17:06 48.39032 11.59716 6262 ft 262 kts 301°
2026-05-07 17:06 48.39998 11.57402 6519 ft 261 kts 301°
2026-05-07 17:07 48.40954 11.55085 6753 ft 261 kts 300°
2026-05-07 17:07 48.41910 11.52748 6973 ft 263 kts 300°
2026-05-07 17:07 48.42865 11.50398 7041 ft 263 kts 300°
2026-05-07 17:07 48.43816 11.48052 7041 ft 263 kts 300°
2026-05-07 17:08 48.44832 11.45765 7039 ft 264 kts 308°
2026-05-07 17:08 48.46196 11.43917 7040 ft 266 kts 324°
2026-05-07 17:08 48.47891 11.42676 7043 ft 270 kts 340°
2026-05-07 17:08 48.49735 11.42089 7037 ft 272 kts 347°
2026-05-07 17:09 48.51593 11.41590 7043 ft 272 kts 347°
2026-05-07 17:09 48.53457 11.41082 7028 ft 271 kts 346°
2026-05-07 17:09 48.55312 11.40572 7034 ft 271 kts 346°
2026-05-07 17:09 48.57166 11.40059 7030 ft 271 kts 346°
2026-05-07 17:10 48.59019 11.39548 7034 ft 271 kts 346°
2026-05-07 17:10 48.60874 11.39035 7027 ft 271 kts 346°
2026-05-07 17:10 48.62757 11.38510 7414 ft 279 kts 346°
2026-05-07 17:10 48.64656 11.37982 8495 ft 278 kts 346°
2026-05-07 17:11 48.66570 11.37451 9467 ft 282 kts 346°
2026-05-07 17:11 48.68516 11.36856 10276 ft 291 kts 341°
2026-05-07 17:11 48.70489 11.35809 10615 ft 311 kts 332°
2026-05-07 17:11 48.72440 11.34151 10927 ft 331 kts 322°
2026-05-07 17:12 48.74366 11.32162 11591 ft 340 kts 323°
2026-05-07 17:12 48.76343 11.30149 12412 ft 344 kts 323°
2026-05-07 17:12 48.78350 11.28119 13255 ft 349 kts 324°
2026-05-07 17:12 48.80384 11.26067 14093 ft 354 kts 324°
2026-05-07 17:13 48.82438 11.23991 14891 ft 357 kts 324°
2026-05-07 17:13 48.84493 11.21837 15704 ft 359 kts 319°
2026-05-07 17:13 48.86367 11.19318 16520 ft 361 kts 315°
2026-05-07 17:13 48.88225 11.16732 17355 ft 364 kts 315°
2026-05-07 17:14 48.90097 11.14120 18179 ft 367 kts 315°
2026-05-07 17:14 48.91981 11.11491 18886 ft 370 kts 315°
2026-05-07 17:14 48.93886 11.08836 19583 ft 373 kts 315°
2026-05-07 17:14 48.95807 11.06157 20247 ft 376 kts 315°
2026-05-07 17:15 48.97743 11.03451 20913 ft 380 kts 315°
2026-05-07 17:15 48.99696 11.00715 21549 ft 384 kts 315°
2026-05-07 17:15 49.01670 10.97944 22152 ft 388 kts 316°
2026-05-07 17:15 49.03666 10.95140 22762 ft 392 kts 316°
2026-05-07 17:16 49.05679 10.92306 23349 ft 396 kts 316°
2026-05-07 17:16 49.07701 10.89455 23693 ft 398 kts 316°
2026-05-07 17:16 49.09738 10.86578 23931 ft 399 kts 316°
2026-05-07 17:16 49.11769 10.83707 24039 ft 400 kts 316°
2026-05-07 17:17 49.13817 10.80814 24098 ft 400 kts 316°
2026-05-07 17:17 49.15860 10.77926 24095 ft 400 kts 315°
2026-05-07 17:17 49.17925 10.74999 24096 ft 400 kts 315°
2026-05-07 17:17 49.19968 10.72089 24095 ft 400 kts 315°
2026-05-07 17:18 49.21958 10.69113 24062 ft 400 kts 313°
2026-05-07 17:18 49.23894 10.66077 24063 ft 400 kts 312°
2026-05-07 17:18 49.25815 10.62994 24072 ft 400 kts 312°
2026-05-07 17:18 49.27739 10.59888 24064 ft 404 kts 312°
2026-05-07 17:19 49.29680 10.56766 24067 ft 405 kts 312°
2026-05-07 17:19 49.31632 10.53643 24066 ft 406 kts 313°
2026-05-07 17:19 49.33599 10.50518 24067 ft 406 kts 313°
2026-05-07 17:19 49.35554 10.47399 24068 ft 406 kts 311°
2026-05-07 17:20 49.37282 10.43994 24059 ft 404 kts 304°
2026-05-07 17:20 49.38902 10.40454 23697 ft 406 kts 304°
2026-05-07 17:20 49.40541 10.36862 22595 ft 412 kts 304°
2026-05-07 17:20 49.42163 10.33304 22261 ft 401 kts 304°
2026-05-07 17:21 49.43753 10.29821 22043 ft 397 kts 304°
2026-05-07 17:21 49.45328 10.26362 21664 ft 394 kts 304°
2026-05-07 17:21 49.46892 10.22926 21261 ft 391 kts 303°
2026-05-07 17:21 49.48447 10.19504 20864 ft 388 kts 303°
2026-05-07 17:22 49.49985 10.16112 20452 ft 386 kts 303°
2026-05-07 17:22 49.51512 10.12738 20072 ft 384 kts 303°
2026-05-07 17:22 49.53032 10.09377 19700 ft 382 kts 303°
2026-05-07 17:22 49.54548 10.06012 19302 ft 381 kts 303°
2026-05-07 17:23 49.56056 10.02662 18908 ft 379 kts 303°
2026-05-07 17:23 49.57555 9.99333 18533 ft 377 kts 303°
2026-05-07 17:23 49.59043 9.96028 18120 ft 375 kts 303°
2026-05-07 17:23 49.60523 9.92741 17733 ft 373 kts 303°
2026-05-07 17:24 49.62000 9.89458 17351 ft 371 kts 304°
2026-05-07 17:24 49.62991 9.87254 17097 ft 369 kts 304°
2026-05-07 17:24 49.64450 9.84001 16722 ft 367 kts 304°
2026-05-07 17:24 49.65895 9.80768 16348 ft 366 kts 304°
2026-05-07 17:25 49.67331 9.77545 15980 ft 364 kts 304°
2026-05-07 17:25 49.68762 9.74328 15617 ft 362 kts 304°
2026-05-07 17:25 49.70186 9.71127 15243 ft 360 kts 304°
2026-05-07 17:25 49.71599 9.67950 14877 ft 359 kts 304°
2026-05-07 17:26 49.73010 9.64772 14512 ft 357 kts 304°
2026-05-07 17:26 49.74423 9.61632 14173 ft 355 kts 307°
2026-05-07 17:26 49.76005 9.58698 13937 ft 354 kts 310°
2026-05-07 17:26 49.77617 9.55829 13678 ft 353 kts 311°
2026-05-07 17:27 49.79238 9.52988 13390 ft 351 kts 311°
2026-05-07 17:27 49.80835 9.50195 12950 ft 344 kts 311°
2026-05-07 17:27 49.82412 9.47420 12429 ft 340 kts 310°
2026-05-07 17:27 49.83963 9.44679 11926 ft 337 kts 310°
2026-05-07 17:28 49.85510 9.41934 11665 ft 335 kts 310°
2026-05-07 17:28 49.87012 9.39261 11418 ft 324 kts 310°
2026-05-07 17:28 49.88461 9.36677 11292 ft 311 kts 310°
2026-05-07 17:28 49.89858 9.34186 11037 ft 302 kts 310°
2026-05-07 17:29 49.91235 9.31734 10785 ft 294 kts 310°
2026-05-07 17:29 49.92563 9.29368 10531 ft 287 kts 310°
2026-05-07 17:29 49.93841 9.27090 10313 ft 280 kts 310°
2026-05-07 17:29 49.95121 9.24807 10109 ft 271 kts 310°
2026-05-07 17:30 49.96332 9.22638 9998 ft 260 kts 310°
2026-05-07 17:30 49.97490 9.20559 9842 ft 250 kts 310°
2026-05-07 17:30 49.98615 9.18538 9570 ft 246 kts 310°
2026-05-07 17:30 49.99730 9.16536 9241 ft 244 kts 310°
2026-05-07 17:31 50.00838 9.14544 8896 ft 242 kts 310°
2026-05-07 17:31 50.01931 9.12574 8567 ft 238 kts 310°
2026-05-07 17:31 50.03007 9.10635 8109 ft 237 kts 310°
2026-05-07 17:31 50.04085 9.08694 7660 ft 236 kts 310°
2026-05-07 17:32 50.05153 9.06770 7272 ft 234 kts 310°
2026-05-07 17:32 50.06213 9.04858 6871 ft 233 kts 310°
2026-05-07 17:32 50.07269 9.02952 6487 ft 231 kts 310°
2026-05-07 17:32 50.08315 9.01061 6071 ft 229 kts 310°
2026-05-07 17:33 50.09351 8.99187 5662 ft 228 kts 310°
2026-05-07 17:33 50.10380 8.97323 5262 ft 227 kts 311°
2026-05-07 17:33 50.11286 8.95326 4886 ft 226 kts 296°
2026-05-07 17:33 50.11692 8.92971 4590 ft 227 kts 276°
2026-05-07 17:34 50.11534 8.90531 4328 ft 228 kts 255°
2026-05-07 17:34 50.11005 8.88245 4093 ft 219 kts 251°
2026-05-07 17:34 50.10503 8.86124 4024 ft 197 kts 252°
2026-05-07 17:34 50.10048 8.84193 3814 ft 184 kts 252°
2026-05-07 17:35 50.09616 8.82358 3588 ft 179 kts 252°
2026-05-07 17:35 50.09189 8.80542 3354 ft 178 kts 252°
2026-05-07 17:35 50.08762 8.78730 3114 ft 178 kts 252°
2026-05-07 17:35 50.08334 8.76919 2876 ft 178 kts 252°
2026-05-07 17:36 50.07904 8.75096 2624 ft 177 kts 252°
2026-05-07 17:36 50.07485 8.73324 2388 ft 175 kts 251°
2026-05-07 17:36 50.07161 8.71589 2227 ft 153 kts 261°
2026-05-07 17:36 50.07014 8.70014 2020 ft 143 kts 266°
2026-05-07 17:37 50.06850 8.68508 1796 ft 140 kts 257°
2026-05-07 17:37 50.06529 8.67078 1605 ft 140 kts 250°
2026-05-07 17:37 50.06174 8.65677 1418 ft 139 kts 250°
2026-05-07 17:37 50.05813 8.64280 1223 ft 139 kts 250°
2026-05-07 17:38 50.05493 8.62876 1015 ft 136 kts 250°
2026-05-07 17:38 50.05168 8.61504 813 ft 134 kts 249°
2026-05-07 17:38 50.04855 8.60146 623 ft 133 kts 248°
2026-05-07 17:38 50.04536 8.58797 424 ft 133 kts 248°
2026-05-07 17:39 50.04227 8.57507 364 ft 116 kts 249°
2026-05-07 17:39 50.04038 8.56707 363 ft 42 kts 250°
2026-05-07 17:39 50.03989 8.56413 353 ft 26 kts 274°
2026-05-07 17:39 50.04009 8.56217 351 ft 11 kts 280°
2026-05-07 17:40 50.04020 8.56153 354 ft 2 kts 291°
2026-05-07 17:40 50.04023 8.56138 354 ft 2 kts 290°
2026-05-07 17:40 50.04039 8.56063 358 ft 10 kts 297°
2026-05-07 17:40 50.04078 8.55990 356 ft 8 kts 322°
2026-05-07 17:41 50.04122 8.55955 354 ft 8 kts 338°
2026-05-07 17:41 50.04184 8.55919 356 ft 9 kts 339°
2026-05-07 17:41 50.04212 8.55851 359 ft 7 kts 275°
2026-05-07 17:41 50.04198 8.55768 353 ft 8 kts 249°
2026-05-07 17:42 50.04177 8.55683 359 ft 9 kts 249°
2026-05-07 17:42 50.04155 8.55597 357 ft 6 kts 243°
2026-05-07 17:42 50.04150 8.55591 359 ft 0 kts 223°
2026-05-07 17:42 50.04150 8.55590 358 ft 1 kts 224°
2026-05-07 17:43 50.04144 8.55566 356 ft 4 kts 253°
2026-05-07 17:43 50.04138 8.55530 355 ft 3 kts 255°
2026-05-07 17:43 50.04133 8.55515 357 ft 0 kts 235°
2026-05-07 17:44 50.04130 8.55507 356 ft 3 kts 239°
2026-05-07 17:44 50.04118 8.55457 355 ft 6 kts 252°
2026-05-07 17:44 50.04103 8.55383 358 ft 10 kts 252°
2026-05-07 17:44 50.04082 8.55286 357 ft 9 kts 250°
2026-05-07 17:45 50.04063 8.55202 357 ft 8 kts 250°
2026-05-07 17:45 50.04043 8.55120 356 ft 8 kts 250°
2026-05-07 17:45 50.04013 8.55082 359 ft 5 kts 184°
2026-05-07 17:45 50.03976 8.55099 358 ft 6 kts 159°
2026-05-07 17:46 50.03945 8.55117 356 ft 3 kts 159°
2026-05-07 17:46 50.03944 8.55117 356 ft 0 kts 159°